Weather History for Ashland, WI

Change the Weather History Date:

Monday, May 12, 2014

  Actual Average Record
Temperature  
Mean Temperature 38 °F -  
Max Temperature 41 °F 66 °F 89 °F (1977)
Min Temperature 35 °F 37 °F 23 °F (1967)
Degree Days  
Heating Degree Days 27    
Moisture  
Dew Point 37 °F    
Average Humidity 99    
Maximum Humidity 100    
Minimum Humidity 76    
Precipitation  
Precipitation 0.42 in - - ()
Sea Level Pressure  
Sea Level Pressure 29.85 in    
Wind  
Wind Speed 10 mph (NNE)    
Max Wind Speed 15 mph    
Max Gust Speed -    
Visibility 3 miles    
Events Fog , Rain    
Averages and records for this station are not official NWS values.
T = Trace of Precipitation, MM = Missing Value Source: NWS Daily Summary

Daily Weather History Graph

Daily Weather History Graph

Search for Another Location

Airport:

Trip Planner

Search our weather history database for the weather conditions in past years. The results will help you decide how hot, cold, wet, or windy it might be!

Date:

Astronomy

May. 12, 2014 Rise Set
Actual Time 5:33 AM CDT 8:27 PM CDT
Civil Twilight 4:58 AM CDT 9:02 PM CDT
Nautical Twilight 4:13 AM CDT 9:47 PM CDT
Astronomical Twilight 3:20 AM CDT 10:41 PM CDT
Moon 6:18 PM CDT (5/12) 4:22 AM CDT (5/12)
Length of Visible Light 16h 04m
Length of Day
14h 53m
Waxing Gibbous, 95% of the Moon is Illuminated
May 12
Waxing Gibbous
May 14
Full
May 21
Last Quarter
May 28
New
Jun 5
First Quarter

Hourly Weather History & Observations

Time (CDT) Temp. Windchill Dew Point Humidity Pressure Visibility Wind Dir Wind Speed Gust Speed Precip Events Conditions
12:53 AM 41.0 °F 37.1 °F 34.0 °F 76% 29.92 in 10.0 mi NNE 5.8 mph - N/A   Overcast
1:53 AM 39.0 °F 32.8 °F 36.0 °F 89% 29.93 in 10.0 mi NE 9.2 mph - 0.01 in Rain Light Rain
2:53 AM 37.9 °F 30.5 °F 36.0 °F 93% 29.93 in 6.0 mi NE 11.5 mph - 0.08 in Rain Light Rain
3:15 AM 37.0 °F 28.9 °F 37.0 °F 100% 29.89 in 6.0 mi NE 12.7 mph - 0.03 in Rain Light Rain
3:31 AM 37.0 °F 29.8 °F 37.0 °F 100% 29.88 in 7.0 mi NE 10.4 mph - 0.06 in Rain Light Rain
3:48 AM 37.4 °F 31.4 °F 37.4 °F 100% 29.89 in 8.0 mi NNE 8.1 mph - 0.07 in Rain Light Rain
3:53 AM 37.9 °F 31.5 °F 37.9 °F 100% 29.91 in 7.0 mi NE 9.2 mph - 0.08 in Rain Light Rain
4:12 AM 37.9 °F 32.7 °F 37.9 °F 100% 29.89 in 4.0 mi NE 6.9 mph - 0.07 in Rain Rain
4:53 AM 39.0 °F 32.8 °F 39.0 °F 100% 29.89 in 6.0 mi NE 9.2 mph - 0.16 in Rain Light Rain
5:53 AM 37.0 °F 29.3 °F 37.0 °F 100% 29.88 in 7.0 mi NNE 11.5 mph - 0.05 in   Overcast
6:53 AM 37.9 °F 29.6 °F 37.9 °F 100% 29.87 in 10.0 mi NE 13.8 mph - 0.01 in   Overcast
7:53 AM 39.0 °F 31.4 °F 39.0 °F 100% 29.88 in 3.0 mi NE 12.7 mph - 0.01 in Rain Light Rain
9:24 AM 37.0 °F 28.1 °F 37.0 °F 100% 29.85 in 1.8 mi NE 15.0 mph - N/A   Overcast
9:53 AM 37.9 °F 30.0 °F 37.9 °F 100% 29.88 in 1.8 mi NNE 12.7 mph - N/A   Overcast
10:33 AM 37.9 °F 30.9 °F 37.9 °F 100% 29.87 in 2.5 mi NE 10.4 mph - 0.00 in   Overcast
10:42 AM 37.9 °F 31.5 °F 37.9 °F 100% 29.87 in 4.0 mi NE 9.2 mph - 0.00 in   Overcast
10:53 AM 37.9 °F 31.5 °F 37.9 °F 100% 29.90 in 7.0 mi NE 9.2 mph - 0.00 in   Overcast
11:53 AM 37.9 °F 30.5 °F 37.9 °F 100% 29.90 in 2.5 mi NE 11.5 mph - N/A   Overcast
12:10 PM 37.9 °F 31.5 °F 37.9 °F 100% 29.87 in 1.5 mi NNE 9.2 mph - N/A   Overcast
12:33 PM 37.9 °F 30.9 °F 37.9 °F 100% 29.87 in 3.0 mi NNE 10.4 mph - 0.01 in Rain Light Rain
12:50 PM 37.4 °F 29.3 °F 37.4 °F 100% 29.86 in 1.8 mi NE 12.7 mph - 0.01 in   Overcast
12:53 PM 37.9 °F 30.9 °F 37.9 °F 100% 29.89 in 1.5 mi NNE 10.4 mph - 0.01 in   Overcast
1:53 PM 37.9 °F 30.5 °F 37.9 °F 100% 29.87 in 1.8 mi NNE 11.5 mph - N/A   Overcast
2:37 PM 37.0 °F 28.5 °F 37.0 °F 100% 29.83 in 0.8 mi NE 13.8 mph - N/A   Mist
2:53 PM 37.9 °F 30.9 °F 37.9 °F 100% 29.86 in 0.8 mi NNE 10.4 mph - N/A   Mist
3:20 PM 37.9 °F 30.9 °F 37.9 °F 100% 29.83 in 1.0 mi NE 10.4 mph - N/A   Overcast
3:53 PM 37.9 °F 30.5 °F 37.9 °F 100% 29.88 in 1.0 mi NNE 11.5 mph - N/A   Overcast
4:05 PM 37.9 °F 29.6 °F 37.9 °F 100% 29.85 in 0.8 mi NNE 13.8 mph - N/A   Overcast
4:34 PM 37.0 °F 31.0 °F 37.0 °F 100% 29.86 in 0.2 mi NNE 8.1 mph - N/A Fog Fog
4:53 PM 37.0 °F 31.0 °F 37.0 °F 100% 29.89 in 0.5 mi NNE 8.1 mph - N/A Fog Fog
5:00 PM 37.0 °F 29.8 °F 37.0 °F 100% 29.86 in 0.2 mi NNE 10.4 mph - N/A Fog Fog
5:53 PM 37.0 °F 30.4 °F 37.0 °F 100% 29.86 in 0.2 mi NNE 9.2 mph - N/A Fog Fog
6:53 PM 36.0 °F 29.0 °F 36.0 °F 100% 29.84 in 0.2 mi NNE 9.2 mph - N/A Fog Fog
7:53 PM 36.0 °F 29.0 °F 36.0 °F 100% 29.82 in 0.2 mi NNE 9.2 mph - N/A Fog Fog
8:43 PM 36.0 °F 29.6 °F 36.0 °F 100% 29.78 in 0.5 mi NNE 8.1 mph - 0.00 in Fog Fog
8:53 PM 36.0 °F 29.6 °F 36.0 °F 100% 29.80 in 0.5 mi NNE 8.1 mph - 0.00 in Fog Fog
9:13 PM 36.0 °F 29.0 °F 36.0 °F 100% 29.76 in 0.2 mi NNE 9.2 mph - 0.00 in Fog Fog
10:51 PM 35.6 °F 29.2 °F 35.6 °F 100% 29.70 in 0.5 mi North 8.1 mph - 0.01 in Fog Fog
10:53 PM 36.0 °F 29.6 °F 36.0 °F 100% 29.73 in 0.5 mi North 8.1 mph - 0.01 in Fog Fog
11:32 PM 36.0 °F 31.1 °F 36.0 °F 100% 29.68 in 1.0 mi NNE 5.8 mph - N/A   Mist
11:53 PM 36.0 °F 32.1 °F 36.0 °F 100% 29.70 in 2.0 mi NNE 4.6 mph - 0.00 in   Overcast